Regional Weather Roundup
Issued by NWS

Home | Current Version | Previous Version | Text Only | Print | Product List | Glossary On
Versions: 1 2 3 4 5 6 7 8 9 10 11 12 13 14 15 16 17 18 19 20 21 22 23 24 25 26 27 28 29 30 31 32 33 34 35 36 37 38 39 40 41 42 43 44 45 46 47 48 49 50
000
ASUS42 KFFC 280703
RWRGA
WEATHER ROUNDUP FOR GEORGIA
NATIONAL WEATHER SERVICE PEACHTREE CITY GA
300 AM EDT TUE APR 28 2015

NOTE: "FAIR" INDICATES FEW OR NO CLOUDS BELOW 12,000 FEET WITH NO
SIGNIFICANT WEATHER AND/OR OBSTRUCTIONS TO VISIBILITY.

* = USE WITH CAUTION. THE STATIONS MARKED WITH AN ASTERISK MAY NOT
REPORT WEATHER SUCH AS PRECIPITATION, FOG, OR THUNDER AND ARE NOT
QUALITY CONTROLLED BY NWS.

THE REMARK "TC" DENOTES TEMPERATURE READING IN DEGREES CELSIUS.

GAZ001>058-280800-
NORTH GEORGIA

CITY           SKY/WX    TMP DP  RH WIND       PRES   REMARKS
ATLANTA        CLOUDY    58  39  49 CALM      29.88S
ATHENS         CLOUDY    55  43  63 E9        29.89F
CHAMBLEE       CLOUDY    54  41  61 VRB5      29.88S
PEACHTREE CITY CLOUDY    50  48  93 CALM      29.89R
ROME           CLOUDY    54  39  57 N6        29.90S
WEST ATLANTA   CLOUDY    52  45  77 CALM      29.88S
GAINESVILLE    CLOUDY    55  38  52 E9        29.91F
CARTERSVILLE   CLOUDY    48  42  80 CALM      29.91S


CITY           SKY/WX    TMP DP  RH WIND       PRES   REMARKS
DALTON*        PTCLDY    52  39  62 N5        29.92R
MARIETTA       CLOUDY    54  40  59 N5        29.88S
BLAIRSVILLE*     N/A     41  33  72 CALM      29.94S
$$

GAZ059>098-102>109-280800-
CENTRAL GEORGIA

CITY           SKY/WX    TMP DP  RH WIND       PRES   REMARKS
AUGUSTA-BUSH   CLOUDY    56  46  69 E8        29.90R
AUGUSTA-DANIEL CLOUDY    60  42  51 E13G21    29.90R
COLUMBUS       CLOUDY    59  43  55 CALM      29.86F
MACON          CLOUDY    55  53  93 CALM      29.86F
ROBINS AFB     CLOUDY    57  52  85 NW5       29.86S


CITY           SKY/WX    TMP DP  RH WIND       PRES   REMARKS
LAGRANGE*      CLOUDY    55  52  91 CALM      29.88F
SYLVANIA*      MOCLDY    55  55 100 CALM      29.88S
MILLEDGEVILLE* CLOUDY    55  54  94 CALM      29.87S
$$

GAZ099>101-110>166-280800-
SOUTH GEORGIA

CITY           SKY/WX    TMP DP  RH WIND       PRES   REMARKS
SAVANNAH       MOCLDY    61  58  90 CALM      29.87F
VALDOSTA       CLOUDY    64  63  96 E5        29.81F
ALMA           PTCLDY    62  60  93 CALM      29.86R
ST SIMONS      CLOUDY    67  56  67 E10       29.84F
FT STEWART     MOCLDY    60  58  94 CALM      29.85S FOG
ALBANY         CLOUDY    63  61  93 N3        29.84F
HUNTER AFB     MOCLDY    60  60 100 E2        29.85S
MOODY AFB      CLOUDY    63  61  91 NE7       29.81F
BRUNSWICK      CLOUDY    63  59  88 NE3       29.85F


CITY           SKY/WX    TMP DP  RH WIND       PRES   REMARKS
BAINBRIDGE*    CLOUDY    68  63  83 NE5       29.82S
MOULTRIE*      CLOUDY    64  61  88 CALM      29.83F
VIDALIA*       MOCLDY    61  57  88 CALM      29.87R
WAYCROSS*      PTCLDY    65  65  99 E3        29.85S FOG
DOUGLAS*       MOCLDY    64  63  94 E3        29.87S
$$



USA.gov is the U.S. government's official web portal to all federal, state and local government web resources and services.